Lid_Strength_Index
3 3 3 3 3 3 3 3 3 3 3 3 2 2 2 2 2 5 10 5 5 -2 0 8 7 8 8 10 10 12 14 16 14 14 10 8 9 6 4 6 5 4 4 3 2
3 3 3 3 3 3 3 3 3 3 3 3 3 3 2 2 6 7 3 -0 -2 -2 8 9 9 9 10 11 11 12 15 14 12 12 9 8 8 7 7 7 6 5 3 3 3
3 3 3 3 3 4 3 3 3 3 3 3 3 3 2 3 10 10 -2 -2 -2 -1 6 7 8 9 9 12 11 13 13 12 11 10 9 8 8 6 8 9 7 6 5 4 4
3 4 4 4 4 4 4 4 3 3 3 3 3 3 2 6 14 8 -3 -2 -3 4 7 8 10 12 12 11 11 13 11 11 10 10 8 8 7 8 7 7 4 4 4 4 4
4 4 4 4 4 4 4 4 4 4 4 4 3 3 5 11 10 7 -1 -1 1 6 7 9 11 11 11 11 11 13 11 11 11 11 8 6 7 7 7 5 5 4 4 4 4
5 5 4 4 4 4 4 4 4 4 4 3 3 2 8 13 9 3 1 4 6 8 8 9 10 9 10 11 11 10 11 10 11 11 12 8 8 7 6 4 5 4 5 4 4
4 5 5 5 4 4 4 4 4 4 4 3 3 3 8 10 6 6 7 8 6 7 8 9 8 9 9 10 9 10 11 11 11 12 9 6 10 9 5 5 6 5 5 4 4
4 4 4 4 4 4 4 4 4 3 3 3 2 4 11 8 6 6 7 7 7 7 8 8 8 9 10 9 9 11 12 13 12 11 8 9 11 8 5 6 6 6 5 4 4
5 5 4 4 4 4 4 4 3 2 2 1 5 8 11 5 7 6 6 8 7 7 8 6 8 10 9 12 13 12 14 13 11 11 8 10 12 10 7 6 7 6 5 5 5
5 5 5 5 5 5 5 4 3 2 2 2 3 10 10 9 6 5 6 6 6 7 8 9 10 12 12 13 15 15 14 13 13 11 11 12 10 10 9 6 6 6 6 5 5
5 5 5 5 5 5 6 9 10 11 9 10 9 10 8 6 4 5 6 6 7 8 11 10 12 13 12 11 11 11 12 12 11 10 11 12 12 10 9 8 7 7 6 6 6
5 5 5 5 5 5 8 10 10 10 12 9 9 9 7 6 8 6 5 8 9 10 10 11 13 10 10 10 10 11 12 12 11 10 11 12 12 10 8 8 7 7 7 6 6
5 5 5 5 5 8 10 8 8 10 14 11 9 9 9 7 8 8 6 8 10 11 11 12 10 9 9 11 11 12 13 12 12 11 11 12 13 10 9 8 7 7 6 6 6
5 5 5 5 8 10 10 9 10 10 15 12 9 8 8 8 9 5 5 7 10 11 11 12 9 9 11 11 11 13 10 10 11 12 15 13 16 13 10 10 9 8 7 7 6
5 5 5 6 11 12 10 10 9 9 19 9 9 7 9 9 8 7 5 8 10 10 10 11 11 11 11 10 9 11 9 10 11 13 15 14 15 13 11 12 10 9 8 7 6
5 5 5 9 12 11 10 9 9 16 19 11 9 11 11 9 8 8 8 7 8 10 10 10 8 9 9 9 9 8 10 12 13 14 17 14 15 15 13 11 10 9 8 7 6
5 6 7 8 12 10 10 10 16 18 12 11 11 11 12 11 10 9 10 11 12 14 14 12 11 9 8 10 10 11 13 17 17 17 17 14 15 13 11 9 8 8 8 7 6
6 7 9 8 10 10 10 13 19 14 13 9 10 10 12 11 11 11 12 13 12 12 14 14 15 11 9 10 11 12 13 16 19 18 16 14 15 12 9 8 7 7 7 6 6
7 12 12 11 9 10 12 17 16 14 10 10 11 12 13 11 12 12 12 13 12 11 13 15 14 9 9 9 9 12 14 13 15 16 17 15 13 10 10 10 9 8 8 7 6
12 13 12 9 9 11 14 15 14 10 9 9 13 12 14 13 13 14 13 10 10 10 11 12 14 10 9 9 9 11 10 14 16 18 19 16 15 13 11 11 10 9 8 7 6
13 14 11 9 10 12 16 15 12 9 8 10 12 12 12 13 13 14 13 10 9 10 11 12 13 12 11 12 12 12 13 13 14 15 17 18 16 11 9 9 10 9 8 7 7
14 17 9 8 13 15 15 12 9 9 8 9 10 11 12 12 12 13 13 11 9 10 12 12 14 15 13 11 10 11 12 13 15 15 15 16 15 10 9 8 8 8 7 7 6
16 15 9 9 15 15 13 11 10 9 10 10 10 10 10 12 13 11 11 9 8 10 12 12 15 17 14 13 11 13 12 12 13 14 15 16 14 8 8 9 8 8 7 7 7
15 18 14 12 13 14 14 13 12 9 9 9 10 10 11 12 12 12 11 9 8 8 6 8 14 14 16 14 12 12 11 11 13 16 15 14 13 11 10 9 8 8 7 7 8
15 16 15 16 14 14 13 12 13 13 11 10 11 10 12 14 13 13 10 9 8 8 10 11 14 13 12 11 11 11 11 11 13 12 13 12 12 11 9 9 8 7 7 8 8
15 15 14 15 14 15 13 14 13 12 13 14 12 11 11 14 13 13 11 11 11 9 11 12 14 14 14 12 12 12 11 10 11 12 12 11 12 9 10 7 8 7 7 7 7
13 13 14 15 15 15 15 14 13 12 12 10 11 12 12 11 9 10 10 10 10 12 12 12 13 14 16 12 12 14 11 10 11 11 11 12 10 9 9 8 8 7 7 7 6